Location: Northam
(31.6525°S, 116.6655°E)
Time: 02:35:52
(UTC+08:00)

STARLINK-1860 - Pass Details

Date: 17 January 2021
Orbit: 545 x 549 km, 53.1° (Epoch: 28 February)

Event Time Altitude Azimuth Distance (km) Brightness Sun altitude
Rises 20:40:38 0° 227° (SW) 2,733 9.0 -15.3°
Reaches altitude 10° 20:42:54 10° 231° (SW) 1,833 7.7 -15.7°
Maximum altitude 20:47:00 58° 310° (NW) 641 3.9 -16.4°
Enters shadow 20:48:55 29° 18° (NNE) 1,029 4.5 -16.7°
